www.pogodaiklimat.ru

Погода и климат >> Архив погоды >> Россия >> Камчатский край >> Тиличики


ПОГОДА в Тиличиках

  • Прогноз погоды в Тиличиках
  • Монитор погоды в Тиличиках
  • Климат города

АРХИВ ПОГОДЫ в Тиличиках

Время (UTC), дата Ветер
(напр.,м/с)
 
Видим.   Явления Облачность Т
(С)
Тd
(С)
f
(%)
Тe
(С)
Тes
(С)
Комфортность P
(гПа)
Po
(гПа)
Тmin
(С)
Tmax
(С)
R
(мм)
R24
(мм)
S
(см)
06 15.10 С 5
{12}
50 км в посл. час ливневой снег 10/6 1000 м
[Sc Ac trans]
+0.3 -4.9 68 -5 -5 1013.9 1002.7
09 15.10 С 6
{10}
20 км 9/5 1000 м
[Sc Ac trans]
0.0 -4.8 70 -6 -6 1013.5 1002.3 +2.8 0.0
12 15.10 С 5
{10}
20 км 4/0
[Ac trans]
+0.2 -4.6 70 -6 -6 1013.4 1002.3
15 15.10 С 4 20 км 6/0
[Ac trans Ci fib]
-0.3 -4.9 71 -6 -6 1014.0 1002.8
18 15.10 С 9-13
{13}
20 км 1/0
[Ac trans]
-0.5 -5.2 70 -8 -8 1014.3 1003.1
21 15.10 С 7
{13}
50 км 3/0
[Ac trans]
-0.4 -5.0 71 -7 -7 1015.4 1004.2 -1.3
00 16.10 С 4
{11}
50 км 3/0
[Ci fib]
+3.0 -4.3 59 -1 0 1015.6 1004.5
03 16.10 С 7-10
{11}
50 км 8/5 600 м
[Sc Ci fib]
+3.6 -4.0 58 -2 -2 1015.3 1004.2
06 16.10 С 6
{11}
50 км 4/0
[Ci fib]
+1.6 -4.9 62 -4 -4 1016.2 1005.0
09 16.10 С 6
{11}
20 км 3/0
[Ci fib]
-0.1 -5.8 65 -6 -6 1017.2 1005.9 +4.3
12 16.10 СВ 6 20 км 3/0
[Ac trans]
-1.8 -6.5 70 -9 -9 1017.6 1006.2
15 16.10 С 5 20 км ясно -3.3 -7.3 74 -10 -10 1017.8 1006.4
18 16.10 СВ 6 20 км ясно -3.7 -7.9 73 -11 -11 1018.0 1006.6
21 16.10 С 4 50 км ясно -3.6 -8.0 71 -10 -9 1018.6 1007.2 -4.9
00 17.10 С 4 50 км ясно -0.6 -7.6 59 -6 -4 1018.1 1006.8
03 17.10 С 4 50 км ясно +0.2 -7.8 55 -5 -4 1017.6 1006.4
06 17.10 С 4 50 км ясно -3.0 -8.4 66 -9 -9 1018.0 1006.6
09 17.10 С 5 20 км ясно -4.2 -8.6 71 -11 -11 1018.4 1007.0 +0.6
12 17.10 СВ 5 20 км ясно -5.4 -8.8 77 -12 -12 1018.4 1006.9
15 17.10 С 1 20 км ясно -4.8 -8.5 75 -7 -7 1018.3 1006.9
18 17.10 С 1 20 км 10/6 1000 м
[Sc Ac trans]
-5.4 -8.3 80 -8 -8 1018.0 1006.5
21 17.10 ЮВ 2 50 км 9/0
[Ac trans]
-3.4 -6.0 82 -7 -7 1017.9 1006.5 -6.6
00 18.10 ЮЗ 1 50 км 3/0
[Ac trans]
+0.9 -4.7 66 -1 +1 1017.2 1006.0
03 18.10 ЮЗ 1 50 км 9/8 1000 м
[Sc Ac trans]
+2.6 -3.8 63 +1 +2 1016.1 1005.0
06 18.10 СВ 3 50 км 8/3 1000 м
[Sc Ac trans Ci fib]
+1.5 -2.9 73 -3 -3 1015.5 1004.3
09 18.10 СВ 4 20 км в посл. час ливневой снег 10/10 1000 м
[Sc]
+2.0 -2.8 70 -3 -3 1014.7 1003.5 +3.8 0.0
12 18.10 СВ 4 20 км {ливн. осадки} 10/10 1000 м
[Sc]
+2.9 -1.8 71 -2 -2 1013.3 1002.3
15 18.10 СВ 4 20 км 10/10 1000 м
[Sc]
+3.4 -1.0 73 -1 -1 1011.8 1000.8
18 18.10 СВ 4 20 км 10/10 1000 м
[Sc]
+2.8 -1.2 75 -2 -2 1010.4 999.4
21 18.10 СВ 4 50 км 10/9 600 м
[Sc Ci fib]
+3.7 -1.4 69 -1 -1 1009.8 998.8 +1.9
00 19.10 СВ 7-10
{10}
50 км 10/9 600 м
[Sc Ci fib]
+5.2 -0.8 65 0 0 1008.2 997.3
03 19.10 СВ 7
{10}
50 км 10/10 600 м
[Sc]
+5.4 -2.9 55 +1 +1 1007.2 996.3
06 19.10 СВ 6
{11}
20 км 10/10 600 м
[Sc]
+3.6 -3.0 62 -2 -2 1007.1 996.1
09 19.10 СВ 5 20 км 10/0
[Ac trans Cs]
+1.6 -4.7 63 -4 -4 1007.8 996.7 +5.5
12 19.10 СВ 5 20 км 4/0
[Ac trans Ci fib]
+1.0 -5.3 63 -4 -4 1007.8 996.7
15 19.10 СВ 5 20 км 9/9 600 м
[Sc]
+1.8 -5.7 57 -3 -3 1007.8 996.7
18 19.10 СВ 5 20 км 10/8 600 м
[Sc Ci fib]
+2.0 -5.6 57 -3 -3 1007.7 996.7
21 19.10 СВ 3 50 км 10/8 1000 м
[Sc Ac trans]
+2.4 -6.0 54 -1 -1 1008.3 997.3 +0.5
00 20.10 В 3 50 км 10/6 1000 м
[Sc Ac trans]
+4.7 -4.9 50 +2 +2 1008.5 997.5
03 20.10 С 2 50 км 9/8 1000 м
[Sc Ac trans]
+4.7 -7.1 42 +3 +3 1008.0 997.0
06 20.10 С 2 50 км 6/4 1000 м
[Sc Ac trans]
+1.5 -6.3 56 -1 -1 1008.9 997.8
09 20.10 С 2 20 км 10/4 1000 м
[Sc Ac trans]
+1.6 -7.4 51 -1 -1 1009.9 998.8 +5.4
12 20.10 штиль 0 20 км 10/6 1000 м
[Sc Ac trans]
+0.5 -7.0 57 0 0 1010.6 999.4
15 20.10 С 2 20 км 3/0
[Ci fib]
-0.6 -7.6 59 -4 -4 1011.0 999.8
18 20.10 С 3 20 км ясно -1.2 -8.1 59 -6 -6 1011.6 1000.4
21 20.10 СВ 4 50 км 1/0
[Ac trans]
-0.9 -7.9 59 -6 -6 1012.5 1001.3 -2.4
00 21.10 Ю 1 50 км ясно +2.3 -5.3 57 +1 +3 1012.9 1001.8
03 21.10 СЗ 4 50 км ясно +3.2 -7.7 45 -1 0 1012.5 1001.4
06 21.10 С 3 50 км ясно -1.1 -7.8 60 -5 -5 1013.0 1001.7
12 21.10 СВ 1 20 км ясно -1.6 -7.0 67 -3 -3 1013.5 1002.2
15 21.10 З 1 20 км ясно -3.5 -9.1 65 -5 -5 1013.2 1001.9
18 21.10 С 3 20 км ясно -4.7 -9.3 70 -10 -10 1013.3 1001.9
03 22.10 Ю 2 50 км ясно +0.7 -7.8 53 -2 -1 1012.1 1000.9

 

Местоположение метеостанции Тиличики (Камчатский край, Россия): широта 60.43 долгота 166.00 высота над уровнем моря 89 м.

В архиве по умолчанию представлена погода в Тиличиках за последнюю неделю. Архивные данные за месяц целиком и за предыдущие месяцы, начиная с января 2011 года, Вы можете получить, выбрав интересующий диапазон дат из раскрывающегося списка и нажав кнопку "Ввод!".


*Определитесь, кто Вы:
робот инопланетянин человек

Внимание! Время в таблицах - всемирное. Для получения местного времени необходимо прибавить поправку, которая в Тиличиках равна 12 ч.

Смотрите также архив погоды в соседних городах и на ближайших метеорологических станциях:

Погода в Чемурнауте (Камчатский край, Россия) (167 км)
Погода в Апуке (Камчатский край, Россия) (198 км)
Погода в Оссоре (Камчатский край, Россия) (214 км)
Погода в Каменском (Камчатский край, Россия) (228 км)
Погода в Слаутном (Камчатский край, Россия) (322 км)
Погода на Мысе Озерном (Камчатский край, Россия) (348 км)
Погода в Палане (Камчатский край, Россия) (373 км)
Погода в Эвенске (Магаданская область, Россия) (400 км)
Погода в Верхне-Пенжино (Камчатский край, Россия) (432 км)
Погода в Усть-Воямполке (Камчатский край, Россия) (445 км)

Пояснения к столбцам:

Ветер - указаны скорость ветра в м/с - средняя за 10 мин, порывы в срок и между сроками (в фигурных скобках) и направление, откуда дует ветер: С - северный, СВ - северо-восточный, В - восточный, ЮВ - юго-восточный, Ю - южный, ЮЗ - юго-западный, З - западный, СЗ - северо-западный.
Видимость - горизонтальная дальность видимости в метрах или километрах. При видимости от 1 до 10 км при отсутствии осадков обычно наблюдается дымка, при ухудшении видимости до 1 км и менее - туман. В сухую погоду видимость может ухудшаться дымом, пылью или мглою.
Явления - указаны атмосферные явления, наблюдавшиеся в срок или в последний час перед сроком; фигурными скобками обозначены явления, наблюдавшиеся между сроками (за 1-3 часа до срока); квадратными скобками обозначены град или гололедные отложения с указанием их диаметра в мм.
Облачность - указаны через наклонную черту общая и нижняя облачность в баллах и высота нижней границы облаков в метрах; квадратными скобками обозначены формы облаков: Ci - перистые, Cs - перисто-слоистые, Cc - перисто-кучевые, Ac - высококучевые, As - высокослоистые, Sc - слоисто-кучевые, Ns - слоисто-дождевые, Cu - кучевые, Cb - кучево-дождевые. Подробнее классификацию облаков см. в Атласе облаков (PDF).
T - Температура воздуха - температура, измеренная на высоте 2 м над землей.
Td - Температура точки росы - температура, при понижении до которой содержащийся в воздухе водяной пар достигнет насыщения.
f - Относительная влажность воздуха - влажноcть воздуха, измеренная на высоте 2 м над землей.
Te - Эффективная температура - температура, которую ощущает одетый по сезону человек в тени. Характеристика душности погоды. При расчете учитывается влияние влажности воздуха и скорости ветра на теплоощущения человека.
Tes - Эффективная температура на солнце - температура, которую ощущает человек, с поправкой на солнечный нагрев. Характеристика знойности погоды. Зависит от высоты солнца над горизонтом, облачности и скорости ветра. Ночью, в пасмурную погоду, а также при ветре 12 м/с и более поправка равна нулю.
P - Атмосферное давление - приведенное к уровню моря атмосферное давление.
Po - Атмосферное давление - измеренное на уровне метеостанции атмосферное давление.
Tmin - Минимальная температура - минимум температуры воздуха на высоте 2 м над землей.
Tmax - Максимальная температура - максимум температуры воздуха на высоте 2 м над землей.
R - Количество осадков - Количество выпавших осадков за период времени, мм. При наведении курсора мыши на число - период времени, за который выпало указанное количество осадков.
R24 - Количество осадков - Количество выпавших осадков за 24 часа, мм.
S - Снежный покров - Высота снежного покрова, см. При наведении курсора мыши на число - состояние снежного покрова и степень покрытия местности в баллах.